Theta_e
309 309 309 310 311 313 316 318 320 330 334 336 337 339 335 338 338 339 337 337 338 336 336 334 329 332 332 332 332 329 328 326 326 330 330 330 330 329 329 329 329 330 329
307 307 308 308 309 310 312 313 315 317 321 335 336 336 337 337 338 339 338 336 338 336 336 334 329 331 331 331 332 330 330 328 327 329 328 330 330 330 329 329 329 329 330
305 306 306 306 307 308 309 310 313 315 318 328 337 337 336 336 338 337 337 336 337 336 335 334 330 331 332 332 332 331 330 329 328 326 328 329 330 330 329 328 328 328 329
302 303 303 304 305 306 307 309 311 313 315 318 331 336 337 336 338 337 338 337 336 337 336 335 330 330 332 332 332 332 331 330 327 327 328 326 324 328 329 328 328 328 328
299 298 298 298 299 300 301 304 307 311 313 316 320 330 336 338 337 338 337 336 337 336 336 336 332 331 331 334 333 332 332 330 327 327 327 327 326 324 329 329 328 327 327
297 296 295 295 296 297 299 301 304 306 308 314 316 322 328 335 337 336 336 336 337 336 336 335 335 331 331 333 334 333 332 332 328 326 327 327 326 325 329 329 328 327 326
294 294 294 295 295 296 298 298 300 301 304 308 315 316 318 328 336 338 336 336 336 335 335 335 335 333 331 332 334 333 332 332 331 328 328 326 326 323 329 329 328 327 325
293 293 294 295 296 297 298 298 299 300 302 304 309 315 320 325 332 335 337 336 335 334 335 335 335 334 333 332 334 333 333 332 332 331 329 326 326 327 327 328 328 327 324
291 292 292 292 293 293 296 298 299 301 302 302 304 309 321 325 327 332 334 335 336 334 334 334 335 334 336 334 332 332 333 333 332 332 331 328 327 327 327 326 327 326 324
290 290 290 290 290 291 292 295 297 300 302 302 305 306 309 316 325 328 333 334 334 334 332 329 328 334 335 335 335 333 331 332 333 332 332 330 328 327 326 325 326 325 324
289 289 289 288 289 290 292 293 295 297 298 302 303 305 308 312 319 325 329 329 335 334 333 331 333 335 334 334 334 335 333 330 331 332 331 331 330 328 327 326 325 325 324
288 289 288 288 288 289 291 292 294 296 298 300 303 303 307 310 318 323 326 327 328 330 330 330 330 333 334 334 334 335 334 333 329 331 331 331 331 330 328 327 326 325 324
287 288 287 287 287 288 289 290 293 296 299 300 302 304 305 308 312 317 324 325 326 329 330 332 334 334 334 334 334 335 334 333 331 329 330 330 331 331 330 328 327 327 325
287 287 286 286 286 287 288 289 293 297 300 302 302 304 306 308 312 313 321 324 326 325 325 327 330 330 332 333 333 334 334 334 333 331 329 329 329 330 330 330 329 328 327
286 285 285 285 285 285 286 288 289 292 297 305 305 306 308 311 312 316 319 324 324 326 326 324 322 325 324 327 328 333 334 333 333 332 330 329 328 328 330 330 329 329 328
284 284 285 284 284 284 285 286 287 288 290 292 295 296 300 305 310 316 319 323 324 323 323 322 322 321 321 319 319 333 333 332 332 332 331 330 329 327 328 329 329 329 329
283 282 283 284 283 283 283 284 285 286 287 288 289 290 291 293 297 304 310 314 321 323 324 324 325 325 320 324 329 330 333 332 332 331 331 330 329 327 327 328 328 328 328
282 281 281 282 282 283 282 282 283 284 284 285 287 287 287 289 290 292 295 298 303 308 313 323 324 325 325 327 328 325 323 331 332 331 331 330 330 328 327 327 327 327 328
281 281 279 280 282 282 282 281 281 282 282 282 283 286 286 286 286 288 288 291 294 302 306 315 322 321 323 321 318 318 320 318 309 322 330 330 330 330 328 327 328 328 328
281 281 279 279 280 281 281 280 280 279 280 280 281 282 285 285 285 285 285 286 288 292 296 298 303 302 299 306 305 306 308 310 314 301 316 321 320 320 320 321 323 323 324
281 280 279 278 279 281 281 280 279 278 278 278 278 279 280 284 284 285 284 283 284 285 286 287 288 287 288 290 292 296 302 306 304 301 298 301 304 307 306 307 308 311 316
281 280 280 278 278 279 281 281 279 278 277 277 277 277 277 279 281 282 283 283 283 283 283 284 284 284 284 285 288 291 296 299 298 300 295 293 295 294 295 297 298 299 301
282 280 279 279 278 278 279 280 279 278 276 276 277 276 276 277 278 281 281 282 282 282 282 283 283 283 283 283 285 289 291 292 290 291 297 292 292 292 292 293 293 294 295
282 281 280 279 278 278 278 278 278 278 277 276 276 276 276 276 277 277 279 279 280 280 281 281 281 282 282 282 285 286 290 289 288 288 292 292 292 291 291 291 292 292 292
283 282 280 278 278 278 277 277 277 277 277 276 276 277 276 276 276 276 276 277 278 278 279 279 280 280 280 281 282 284 285 289 289 284 285 289 287 289 290 290 290 291 290
282 283 281 279 278 277 278 277 276 277 276 276 276 276 277 276 276 275 275 275 276 276 277 277 277 278 278 279 280 281 283 284 286 283 281 286 286 287 289 289 289 289 289
Wind_Speed
22 24 25 24 24 24 23 26 25 25 25 29 29 29 34 31 27 30 33 26 26 24 25 23 23 26 27 29 30 31 30 30 28 26 25 24 23 22 22 22 25 24 25
22 23 24 25 26 25 26 27 28 30 28 26 29 33 33 37 33 30 35 23 23 24 27 25 27 28 27 30 32 34 31 32 29 27 25 24 23 23 24 24 24 25 25
23 23 24 25 25 26 27 27 27 27 29 27 26 27 35 37 37 34 27 27 28 27 28 28 31 31 30 31 34 36 34 33 31 29 27 23 22 23 25 25 25 25 25
24 26 25 25 25 27 26 26 26 27 28 29 26 28 30 35 34 40 34 30 33 30 29 30 35 34 33 34 35 37 36 35 34 33 33 29 27 24 26 28 28 27 26
25 27 27 28 32 31 28 27 27 25 27 28 29 27 29 31 36 33 37 35 33 34 30 35 37 37 36 36 37 38 38 36 36 36 36 30 30 30 30 30 30 29 28
24 23 26 29 28 27 28 27 28 27 27 27 29 27 28 28 33 39 38 38 37 36 32 31 38 38 37 38 38 39 39 39 38 38 38 34 35 34 33 33 32 30 29
29 28 26 24 23 24 25 26 29 28 29 27 26 26 30 31 27 32 40 40 35 38 37 33 34 38 39 39 40 40 40 41 41 40 39 37 36 35 35 35 35 33 30
26 26 28 25 24 24 24 24 24 24 26 24 15 21 8 20 29 30 30 36 40 33 35 36 30 35 35 39 41 41 42 42 42 42 41 40 40 36 38 38 37 35 32
26 25 27 28 27 27 25 23 23 23 22 24 26 12 4 8 4 22 32 34 33 36 33 31 30 34 33 34 41 43 43 43 43 43 42 43 43 40 41 40 39 37 35
25 25 27 29 29 28 27 25 24 24 23 22 22 27 30 27 7 6 16 25 32 35 33 35 35 44 36 33 36 41 45 44 44 44 44 44 44 42 44 43 41 39 37
26 26 29 30 27 27 27 28 28 27 27 26 24 25 26 27 29 13 8 3 19 26 30 34 34 38 37 34 36 40 40 46 46 47 46 45 45 45 47 44 42 41 39
29 28 32 31 28 27 26 27 28 28 29 28 27 28 27 15 11 10 12 6 7 18 28 35 45 44 38 36 36 42 42 39 47 49 48 47 45 45 47 46 44 42 40
31 31 34 34 32 30 29 28 27 29 28 29 29 29 31 33 30 29 22 13 4 8 17 29 34 37 36 36 38 37 42 42 41 50 51 49 47 46 46 47 45 44 42
30 32 33 33 33 32 31 28 26 29 29 32 30 30 31 32 30 33 26 12 10 6 13 9 23 33 32 32 38 41 42 42 45 46 52 52 49 48 47 46 45 44 43
32 33 34 35 35 36 36 34 29 32 33 21 18 18 19 27 32 31 31 25 7 7 9 11 16 24 34 33 44 48 45 46 48 49 48 50 50 48 47 46 45 44 42
33 34 33 36 35 36 35 31 31 33 29 25 15 15 9 12 12 15 26 28 25 14 8 16 22 30 42 36 44 46 49 49 48 51 50 47 48 48 49 48 46 44 43
31 34 33 32 34 38 39 37 35 35 31 29 30 24 20 16 14 8 6 7 6 17 10 16 21 19 32 32 37 41 48 48 50 51 51 48 47 49 50 50 48 45 45
29 31 33 31 35 38 42 42 36 34 34 32 30 29 30 25 23 21 14 14 11 9 6 6 17 23 23 20 24 12 15 28 46 52 54 52 48 48 49 49 48 46 45
29 28 35 34 34 38 39 39 38 37 35 34 32 33 34 34 35 30 26 24 22 14 12 8 9 7 7 7 5 7 12 28 32 15 54 53 48 46 47 48 48 46 45
29 29 34 36 33 33 36 37 38 39 36 37 39 37 36 40 44 32 34 31 26 23 22 20 13 11 9 9 13 8 16 10 10 28 10 30 29 28 28 31 34 37 39
27 28 30 33 33 33 33 34 33 35 37 38 38 40 40 37 41 42 44 39 33 28 26 22 22 18 16 15 17 15 2 18 21 15 20 29 23 20 17 13 10 14 21
25 29 29 32 36 35 31 30 31 30 33 36 36 38 41 42 38 39 38 43 45 35 32 27 23 19 22 23 22 19 8 4 2 22 18 26 26 27 23 22 19 17 13
22 26 30 29 33 37 34 29 30 32 34 37 40 40 40 43 42 35 36 37 38 39 40 32 29 31 28 31 26 20 23 20 13 17 12 17 26 23 25 26 26 26 23
20 23 24 28 29 35 37 31 28 28 32 36 37 40 40 41 41 35 31 33 36 38 38 36 34 32 35 37 29 20 13 18 23 31 13 4 21 17 22 24 24 24 24
16 18 20 27 28 31 36 35 30 28 29 30 33 36 37 38 38 35 34 31 32 35 29 28 29 30 33 37 34 28 30 13 9 17 31 8 17 8 16 24 22 22 22
15 13 17 21 26 30 32 34 33 28 29 28 29 32 35 37 37 38 37 33 31 32 30 30 35 35 38 36 36 35 30 20 14 11 26 9 15 12 4 12 16 21 22
Wind_Direction
328 326 322 321 316 311 307 303 298 292 279 262 250 247 245 244 237 234 233 229 235 228 231 235 216 210 213 211 208 207 207 206 205 203 204 204 206 205 204 202 203 203 199
326 322 319 318 316 313 310 306 300 295 291 272 260 251 249 251 246 243 234 220 233 230 226 231 216 210 212 213 211 210 212 210 208 203 205 204 206 206 203 203 203 205 204
326 324 320 316 313 311 309 309 305 296 292 281 264 263 252 252 253 248 235 231 227 227 229 227 217 211 212 215 214 213 216 215 212 205 202 201 209 210 205 204 202 204 206
335 332 323 319 318 318 310 307 304 299 291 288 279 253 256 248 248 251 245 238 226 220 223 222 217 214 215 215 215 214 218 218 215 210 207 207 208 215 212 207 205 203 205
330 325 323 318 313 312 314 314 305 301 294 291 284 283 252 249 243 244 246 237 231 223 222 221 218 217 215 216 216 216 217 219 216 214 213 214 213 214 214 210 208 207 209
333 328 323 314 315 310 300 300 307 306 304 292 291 285 283 257 244 242 244 240 232 227 217 227 222 217 217 217 218 218 217 217 218 217 217 218 215 215 213 211 211 212 214
336 329 318 314 308 299 297 298 299 304 302 308 295 284 286 278 254 236 237 241 239 231 218 220 228 217 217 219 218 218 218 217 218 220 220 219 216 214 216 214 213 216 218
336 334 327 316 311 303 295 291 291 288 291 290 295 296 275 275 251 245 240 240 243 240 231 221 211 222 216 216 215 218 218 218 216 219 220 218 215 217 215 216 217 218 219
338 337 334 328 322 319 309 295 287 282 281 287 282 272 264 243 262 234 234 236 238 233 234 215 222 219 210 217 218 217 219 219 217 218 220 220 218 219 216 217 219 220 220
340 339 337 333 324 317 307 300 295 284 275 272 278 272 266 280 287 253 225 231 228 227 212 207 205 225 216 214 220 221 219 218 218 218 218 220 219 221 217 219 220 222 223
343 344 338 333 325 318 307 297 291 283 278 275 264 277 276 281 282 259 267 239 223 230 209 218 216 223 215 221 220 221 223 220 217 218 218 219 220 222 220 220 222 223 223
346 344 342 338 331 327 317 306 294 280 273 265 262 263 268 257 277 268 246 250 213 220 217 206 219 223 219 215 224 223 222 223 218 218 218 218 220 221 222 222 223 225 226
350 346 347 345 341 338 333 321 303 290 268 262 259 255 259 261 262 272 265 243 227 235 221 218 219 219 219 217 223 218 220 221 218 219 218 217 220 221 222 224 225 227 228
352 349 352 353 351 351 348 340 325 312 279 263 255 253 260 264 264 262 271 247 239 227 232 236 226 227 231 235 235 229 221 219 219 217 218 218 219 221 222 225 226 227 229
359 355 359 2 2 5 3 357 353 351 350 261 265 270 282 262 267 263 265 259 224 229 229 232 227 232 236 228 237 236 227 219 220 216 216 218 219 221 223 225 227 228 228
8 4 2 8 9 10 8 7 11 9 4 5 1 337 307 309 268 271 266 261 245 240 248 225 229 237 233 238 238 234 231 226 220 217 215 217 218 220 221 224 226 227 229
13 11 4 8 14 17 15 14 18 14 14 13 21 7 18 357 14 332 330 337 270 259 255 263 264 246 238 234 237 239 232 226 222 216 216 217 219 220 221 223 226 227 228
18 15 15 11 17 22 25 18 16 15 18 15 21 20 22 20 26 29 23 26 12 351 8 294 270 259 260 249 245 244 6 246 221 217 216 219 219 220 222 224 227 229 231
23 20 22 16 19 23 24 23 19 19 21 20 19 27 27 27 27 23 31 33 13 358 6 305 342 314 262 269 279 223 335 338 8 276 217 219 219 221 224 226 228 231 234
28 27 23 24 20 25 27 24 24 24 21 21 23 25 27 34 36 28 33 31 25 29 24 26 25 31 358 339 354 26 77 39 12 357 180 210 218 222 225 227 231 236 238
32 30 30 26 24 25 31 30 28 26 27 24 23 25 27 33 39 39 43 38 38 40 40 39 41 32 13 8 348 354 116 110 68 31 6 86 112 131 136 152 168 211 223
34 32 32 30 27 25 29 33 34 32 31 31 27 27 28 26 32 38 43 48 48 47 45 45 41 31 20 2 348 347 349 66 106 54 25 42 77 80 87 87 88 89 90
34 34 32 31 30 28 26 30 35 34 33 30 30 28 29 27 28 30 38 43 45 46 49 46 43 33 24 8 357 8 46 58 52 46 97 25 63 68 75 71 72 70 64
40 36 32 32 32 29 28 29 32 34 36 34 33 32 31 30 29 29 32 37 39 39 40 43 43 36 35 24 27 9 54 77 49 41 85 61 47 72 71 70 65 60 55
38 40 39 37 34 30 28 28 29 32 32 34 32 34 35 34 32 34 34 33 35 34 37 40 41 41 40 39 30 27 28 29 70 26 24 60 11 38 64 51 61 51 45
30 40 49 44 38 33 27 27 27 29 30 29 30 31 33 33 34 35 36 32 30 23 23 27 32 34 37 36 33 32 28 32 52 43 11 36 9 19 37 35 47 32 23